Regional Weather Roundup
Issued by NWS

Home | Current Version | Previous Version | Text Only | Print | Product List | Glossary On
Versions: 1 2 3 4 5 6 7 8 9 10 11 12 13 14 15 16 17 18 19 20 21 22 23 24 25 26 27 28 29 30 31 32 33 34 35 36 37 38 39 40 41 42 43 44 45 46 47 48 49 50
000
ASUS44 KLIX 260111
RWRLA
LOUISIANA WEATHER ROUNDUP
NATIONAL WEATHER SERVICE NEW ORLEANS LA
800 PM CDT WED MAY 25 2016

NOTE: "FAIR" INDICATES FEW OR NO CLOUDS BELOW 12,000 FEET WITH NO
      SIGNIFICANT WEATHER AND/OR OBSTRUCTIONS TO VISIBILITY.
      SKY/WX - SKY CONDITION AND SIGNIFICANT WEATHER.
      TMP - AIR TEMPERATURE.    DP   - DEWPOINT TEMPERATURE.
      RH  - RELATIVE HUMIDITY.  PRES - PRESSURE.
      HX  - HEAT INDEX.         WCI  - WIND CHILL INDEX.

*  THESE STATIONS ARE NOT NWS OR FAA STATIONS AND ARE NOT UNDER
   NWS QUALITY CONTROL.

LAZ040-048-061>063-065-066-069-260200-
SOUTHEAST LOUISIANA

CITY           SKY/WX    TMP DP  RH WIND       PRES   REMARKS
N.O. AUDUBON   NOT AVBL
N.O. INTL ARPT MOCLDY    81  72  74 SE12      30.10S
N.O. LAKEFRONT PTCLDY    81  71  71 SE15      30.11S
N.O. DOWNTOWN* MOCLDY    81  72  74 VRB6      30.11S
RESERVE*       FAIR      82  73  76 SE10      30.09S
SLIDELL        PTCLDY    79  72  79 SE6       30.12R
BATON ROUGE    PTCLDY    83  70  64 S10       30.06R
BOOTHVILLE     CLEAR     76  70  82 SE6       30.13R
BELLE CHASSE   MOCLDY    80  73  79 SE9       30.11R
BOGALUSA*      FAIR      80  69  70 S7        30.13R
GALLIANO*      MOCLDY    80  72  78 SE6       30.11S
NEW ROADS*     FAIR      82  72  72 S6        30.07R
GONZALES*      FAIR      82  72  72 S7        30.07S
HAMMOND*       MOCLDY    79  70  73 SE8       30.09S
HOUMA*         PTCLDY    79  74  86 SE10      30.09F
PORT FOURCHON* PTCLDY    79  73  83 SE12      30.11S

$$

LAZ041-044-053-054-260200-
SOUTHWEST LOUISIANA

CITY           SKY/WX    TMP DP  RH WIND       PRES   REMARKS
LAKE CHARLES   PTCLDY    80  74  81 S13       30.03F
LAFAYETTE      PTCLDY    82  74  76 S9        30.06S
PATTERSON      NOT AVBL
SALT POINT       N/A     80  76  87 VRB5      30.06F
NEW IBERIA     CLEAR     80  74  81 S10       30.07F
CHENAULT AIRPK CLEAR     81  73  78 S10       30.05

$$

LAZ027-028-260200-
CENTRAL LOUISIANA

CITY           SKY/WX    TMP DP  RH WIND       PRES   REMARKS
FORT POLK      MOCLDY    82  73  76 S16       30.00F
ALEXANDRIA INT CLOUDY    83  73  72 S8        30.01R
ALEXANDRIA     CLOUDY    79  73  82 S5        30.03R

$$

LAZ001-002-260200-
NORTHWEST LOUISIANA

CITY           SKY/WX    TMP DP  RH WIND       PRES   REMARKS
SHREVEPORT     MOCLDY    84  75  74 S8        29.98S
BARKSDALE AFB  PTCLDY    85  73  66 S13       29.98R
DTN SHREVEPORT PTCLDY    85  73  67 S15       29.98R

$$

LAZ014-016-260200-
NORTHEAST LOUISIANA

CITY           SKY/WX    TMP DP  RH WIND       PRES   REMARKS
MONROE         CLOUDY    85  74  69 S10G20    29.99F
TALLULAH       TSTM      74  71  91 NE13G18   30.08R FOG

$$




USA.gov is the U.S. government's official web portal to all federal, state and local government web resources and services.